Wind_Speed
21 22 23 24 25 25 25 25 25 25 25 24 23 23 25 25 25 25 26 26 27 27 28 29 29 30 31 33 34 34 35 37 38 39 40 42 43 44 45 45 46 47 48 50
18 19 20 20 20 21 21 21 21 22 22 21 19 22 25 25 25 25 25 26 27 27 27 28 29 29 30 31 33 35 36 37 39 41 42 44 45 46 46 47 48 50 52 53
16 16 16 17 17 18 19 20 19 19 19 19 18 19 25 25 25 25 26 26 26 27 27 28 28 29 29 31 32 34 36 37 39 41 43 44 45 46 46 48 50 53 54 55
14 15 15 16 17 18 18 20 20 20 20 19 20 18 23 27 26 26 27 27 27 27 28 28 29 29 30 31 33 34 36 38 39 41 43 44 46 46 47 50 52 54 56 57
14 14 15 17 18 19 19 20 21 22 23 21 21 21 21 28 28 27 28 29 29 28 29 29 30 31 31 32 33 35 36 38 40 42 44 46 47 48 51 52 54 55 57 59
15 15 16 17 19 20 21 22 23 24 25 24 23 22 22 26 28 30 32 32 32 31 31 32 32 33 34 35 36 37 38 40 42 43 45 47 49 51 53 54 56 57 59 60
16 16 17 19 20 21 23 25 27 28 28 28 27 26 25 28 30 33 34 36 35 35 34 34 35 36 37 37 38 39 41 42 44 45 47 49 50 53 54 56 57 59 60 61
19 18 18 21 22 24 25 26 28 30 30 30 29 29 28 31 33 34 36 38 39 37 36 36 37 38 39 40 41 42 43 45 46 47 49 50 52 54 55 57 58 60 61 62
21 22 21 23 24 26 27 27 29 31 33 34 33 32 31 31 32 35 38 41 41 39 37 38 39 40 42 43 44 45 46 47 48 49 51 52 54 55 56 57 59 60 62 63
23 24 23 23 25 27 29 30 31 33 35 38 36 36 34 33 35 37 39 41 41 39 39 39 40 41 42 43 44 45 46 47 49 50 51 53 55 56 57 58 59 60 62 63
26 27 27 26 26 28 29 30 32 33 35 37 39 35 33 34 35 37 39 40 39 37 38 39 39 40 41 42 43 44 45 47 49 51 52 54 55 56 57 57 58 60 61 62
28 29 29 29 30 31 31 31 31 32 33 35 38 36 33 35 37 38 39 38 38 37 38 39 40 40 41 42 43 44 45 47 48 50 51 52 53 55 56 56 57 58 59 60
30 31 31 30 31 32 31 30 30 32 33 33 35 34 32 35 38 39 39 39 39 39 39 40 41 42 43 44 45 46 47 47 48 49 49 50 52 53 54 55 56 57 58 59
31 31 31 31 30 32 32 31 31 32 32 32 31 32 31 34 37 38 39 39 40 40 41 42 42 43 45 45 46 47 48 48 49 49 50 51 52 53 54 55 55 56 57 58
32 31 30 30 29 30 29 28 29 32 33 34 33 34 35 36 37 37 39 40 41 41 43 44 45 46 47 48 48 49 49 50 50 51 52 52 54 55 56 56 56 57 57 58
31 31 30 29 29 29 27 27 29 31 32 34 35 35 36 38 38 38 40 42 43 44 46 47 48 49 50 50 51 51 52 52 53 54 54 54 55 56 56 57 58 58 58 59
29 30 31 29 29 29 28 28 30 31 32 34 36 37 38 39 40 41 43 45 47 48 49 51 52 52 53 54 54 54 55 55 56 56 57 57 57 57 57 58 58 59 59 59
30 30 31 31 30 30 29 30 32 34 34 36 37 39 40 42 43 45 47 49 51 52 54 55 56 56 57 57 57 57 58 58 58 59 59 59 59 58 58 57 57 57 58 58
30 31 32 33 34 32 31 33 35 37 37 38 40 42 44 45 47 48 51 53 55 57 58 59 60 60 60 60 60 60 60 60 60 60 60 60 59 58 57 57 57 57 57 57
29 31 33 35 37 36 36 38 39 41 43 43 45 47 48 50 52 53 55 58 59 60 62 63 63 63 63 63 62 62 62 61 61 61 60 60 59 58 57 57 57 57 57 57
30 32 33 36 39 39 40 42 44 46 48 49 50 52 54 56 58 60 61 63 64 65 66 66 66 66 65 65 64 63 63 62 61 60 60 59 59 58 57 57 57 57 56 55
33 34 36 39 41 42 45 47 48 50 52 53 55 56 58 60 62 64 65 67 68 68 69 69 69 68 67 66 65 64 63 62 61 60 59 58 58 58 57 57 56 56 55 55
35 36 39 43 44 46 49 51 53 55 56 58 59 61 63 64 66 67 69 70 70 71 71 70 70 68 67 66 65 64 62 61 60 59 58 58 57 57 57 56 55 54 54 54
38 39 43 47 47 49 52 54 56 58 60 61 63 65 66 68 69 70 72 72 73 72 72 71 70 68 66 65 64 63 62 60 59 58 57 57 56 55 54 54 54 53 53 52
40 45 49 52 52 54 55 57 59 61 64 65 67 68 70 72 72 73 74 74 73 72 71 70 69 67 65 63 62 62 61 60 58 57 56 55 54 53 52 52 51 51 51 51
43 50 54 55 56 58 59 61 63 65 66 68 69 71 72 74 74 74 74 73 72 70 69 68 66 65 63 62 61 60 59 58 57 55 54 53 52 51 50 49 49 49 49 49
Wind_Direction
277 279 282 285 287 289 290 292 293 294 296 298 298 294 291 294 297 298 298 298 298 297 294 291 288 284 282 280 278 275 273 273 272 272 271 271 271 272 273 274 276 277 278 280
282 284 287 290 292 295 295 296 296 297 298 299 298 295 294 296 298 299 300 301 301 300 299 297 294 291 287 284 282 280 278 276 276 275 274 274 275 275 276 276 277 277 278 280
287 290 292 295 297 300 301 301 302 302 302 304 302 299 297 297 298 301 301 301 301 301 301 299 297 295 292 288 285 283 282 280 279 278 278 277 277 278 278 278 277 277 279 281
289 293 296 298 300 303 304 304 306 306 306 308 307 307 305 303 304 305 304 303 303 303 303 301 299 296 293 290 287 285 283 282 281 279 279 278 278 278 278 277 277 278 279 281
289 292 295 298 300 303 304 305 306 307 308 309 308 308 310 306 307 307 305 304 305 305 304 303 300 297 295 292 289 287 285 284 282 281 280 279 280 279 278 279 279 280 280 281
290 292 294 297 300 303 305 306 306 305 306 306 307 308 313 308 309 307 305 305 305 306 306 304 300 297 295 293 290 288 286 284 282 281 281 280 280 280 280 280 281 281 281 282
285 290 296 299 301 303 304 306 306 307 310 312 313 315 317 311 309 306 305 305 305 306 304 301 298 296 294 292 291 289 287 285 284 283 282 281 281 281 281 281 281 281 282 282
288 291 295 297 299 301 302 304 306 307 309 308 309 310 312 309 306 304 302 302 302 303 303 300 298 296 295 294 292 290 289 287 285 284 283 282 282 282 282 282 282 283 283 283
290 294 297 298 299 301 301 302 303 303 304 304 305 307 308 308 305 302 302 301 303 306 306 303 300 299 298 296 294 292 290 288 287 286 285 284 283 283 283 283 283 284 284 285
290 293 296 297 298 298 299 301 302 303 304 305 307 310 313 312 308 305 304 305 309 310 307 303 301 300 298 297 295 293 291 289 288 287 286 285 285 284 284 284 284 285 285 286
290 292 295 295 294 294 294 296 298 299 301 302 305 309 313 309 307 305 306 308 311 310 306 305 304 302 301 299 297 296 294 292 290 289 287 286 285 285 285 285 285 285 286 286
289 291 293 295 295 295 296 297 298 299 300 302 304 310 313 310 308 308 310 313 313 311 310 309 308 307 306 304 303 301 299 297 294 292 290 289 287 287 287 287 287 287 287 287
288 290 293 294 294 295 296 298 299 299 299 301 303 309 311 308 308 311 314 315 313 313 313 312 311 310 309 308 307 305 303 302 300 297 295 292 291 290 290 289 289 289 289 289
287 289 291 293 294 295 298 301 302 300 302 303 307 308 309 307 309 312 312 312 312 313 313 312 312 311 310 310 309 308 307 305 303 300 298 296 294 293 292 291 291 291 291 291
284 286 287 288 290 291 294 298 298 299 302 304 308 308 308 308 311 312 311 311 311 312 312 312 312 312 311 310 310 309 308 307 305 303 301 298 296 295 294 292 292 292 292 292
283 285 285 287 289 290 294 296 296 298 300 302 305 307 307 310 311 311 311 310 311 311 311 311 311 311 311 310 310 309 308 307 306 304 303 301 299 297 295 293 293 293 293 293
280 282 284 286 288 290 294 296 297 297 300 302 304 306 307 309 310 310 309 309 309 310 310 310 310 310 310 309 309 308 308 307 306 305 303 302 300 299 296 295 295 294 293 293
282 283 284 286 287 290 296 297 297 298 300 301 303 305 307 307 308 308 307 307 308 308 309 309 310 309 309 309 308 307 307 307 306 305 304 302 301 300 298 297 296 295 295 295
280 282 285 288 289 291 294 295 296 298 299 301 303 304 305 306 306 306 306 306 307 308 308 308 308 308 308 307 307 306 306 306 305 305 304 302 301 300 299 298 297 297 297 297
278 281 284 288 290 293 297 297 297 299 300 302 304 304 305 305 304 304 304 305 305 306 306 306 306 306 306 306 306 305 305 305 305 304 304 302 301 300 299 298 298 298 298 297
277 281 285 288 290 294 295 296 298 299 302 304 305 305 305 305 305 305 304 305 305 305 305 305 306 306 305 305 305 304 304 304 304 303 303 302 300 300 299 299 299 298 298 298
280 283 286 287 290 294 294 297 298 300 301 303 303 303 303 303 303 303 303 303 304 304 304 304 305 305 305 304 304 304 304 303 303 302 301 301 300 299 299 299 299 298 298 298
282 286 288 289 291 293 295 297 299 300 301 302 302 302 302 302 302 302 302 303 303 303 303 304 304 304 304 304 303 303 303 302 302 301 300 300 300 300 300 299 299 299 299 299
284 286 286 287 290 292 294 296 297 298 299 299 300 300 300 301 301 301 302 302 303 303 303 303 303 303 303 303 302 302 302 301 301 300 300 300 300 300 300 300 300 300 300 300
288 287 286 288 292 293 295 296 297 297 298 299 299 300 301 301 301 301 302 302 303 303 303 303 302 303 303 302 302 301 301 300 300 300 300 300 301 301 301 301 301 301 301 301
288 286 288 292 294 295 296 296 297 298 298 299 299 300 300 301 301 301 302 302 302 302 302 302 302 302 302 302 301 301 300 300 300 300 301 302 302 302 303 302 302 302 302 303
Height
5833 5834 5832 5832 5831 5831 5830 5829 5828 5827 5825 5825 5823 5821 5820 5818 5817 5816 5814 5812 5811 5809 5808 5806 5805 5805 5803 5802 5800 5800 5799 5797 5795 5795 5794 5792 5791 5789 5788 5787 5785 5783 5780 5777
5829 5829 5828 5827 5826 5825 5825 5824 5823 5823 5821 5820 5819 5816 5814 5813 5812 5811 5809 5807 5805 5804 5802 5800 5798 5797 5796 5794 5792 5791 5790 5789 5787 5786 5784 5783 5782 5781 5779 5778 5775 5772 5769 5766
5825 5825 5824 5823 5822 5822 5821 5820 5819 5818 5817 5816 5815 5813 5809 5808 5807 5806 5804 5802 5800 5798 5796 5794 5792 5790 5788 5786 5784 5783 5781 5780 5779 5776 5775 5774 5772 5771 5769 5767 5764 5761 5758 5755
5821 5821 5820 5819 5818 5818 5817 5816 5815 5813 5812 5812 5811 5810 5805 5802 5801 5800 5798 5796 5794 5792 5790 5788 5785 5783 5781 5778 5776 5774 5772 5770 5768 5766 5765 5763 5761 5760 5758 5754 5752 5749 5745 5742
5818 5818 5817 5816 5815 5814 5813 5812 5811 5809 5807 5807 5806 5805 5804 5797 5795 5794 5792 5790 5788 5786 5784 5781 5778 5775 5773 5770 5768 5765 5763 5760 5758 5756 5754 5751 5750 5748 5744 5741 5739 5736 5732 5728
5814 5814 5813 5813 5811 5810 5808 5808 5806 5804 5803 5803 5801 5800 5799 5793 5790 5787 5784 5782 5781 5779 5777 5774 5770 5767 5764 5762 5759 5756 5753 5750 5747 5744 5742 5739 5737 5734 5730 5727 5724 5721 5718 5715
5811 5811 5809 5808 5807 5806 5804 5803 5801 5798 5797 5795 5794 5793 5793 5788 5785 5781 5778 5775 5773 5771 5769 5765 5762 5759 5756 5752 5749 5746 5743 5739 5736 5733 5730 5726 5723 5720 5716 5713 5709 5705 5702 5699
5806 5806 5806 5804 5802 5801 5799 5797 5796 5793 5791 5790 5789 5787 5787 5782 5778 5774 5770 5767 5764 5763 5760 5756 5753 5749 5745 5742 5738 5735 5731 5728 5724 5720 5717 5713 5710 5706 5702 5698 5694 5690 5686 5683
5800 5800 5801 5799 5797 5795 5793 5792 5790 5787 5784 5782 5782 5781 5779 5775 5770 5766 5762 5758 5755 5754 5750 5746 5742 5738 5735 5731 5727 5723 5719 5715 5711 5707 5703 5699 5695 5691 5687 5683 5679 5675 5670 5666
5795 5795 5795 5794 5792 5789 5787 5785 5783 5779 5776 5773 5772 5772 5770 5765 5762 5757 5752 5748 5746 5744 5740 5736 5732 5728 5724 5720 5715 5711 5707 5703 5699 5694 5690 5686 5681 5677 5673 5668 5664 5659 5655 5650
5789 5789 5788 5788 5786 5784 5782 5780 5776 5773 5770 5766 5763 5766 5763 5758 5754 5749 5745 5741 5738 5735 5731 5727 5722 5718 5714 5709 5705 5700 5695 5691 5686 5681 5676 5672 5667 5662 5658 5653 5649 5644 5640 5634
5782 5781 5781 5780 5778 5775 5773 5771 5769 5766 5763 5759 5755 5758 5754 5749 5744 5740 5737 5733 5729 5726 5721 5717 5712 5708 5703 5698 5694 5689 5684 5678 5673 5668 5663 5658 5653 5648 5643 5639 5634 5629 5624 5619
5775 5774 5773 5773 5772 5768 5765 5763 5761 5758 5755 5752 5749 5751 5746 5741 5736 5732 5729 5724 5720 5716 5712 5707 5703 5698 5693 5688 5683 5677 5672 5666 5661 5655 5650 5644 5639 5634 5629 5624 5619 5614 5609 5603
5767 5767 5766 5765 5762 5759 5757 5755 5752 5749 5747 5744 5743 5740 5739 5733 5729 5725 5721 5717 5712 5708 5703 5698 5694 5688 5683 5677 5672 5666 5660 5654 5648 5642 5636 5630 5625 5619 5614 5609 5604 5599 5593 5588
5759 5759 5757 5756 5754 5752 5750 5749 5746 5742 5739 5736 5735 5732 5729 5725 5722 5718 5713 5709 5704 5699 5694 5689 5684 5679 5673 5667 5661 5655 5648 5642 5635 5629 5623 5617 5611 5605 5599 5593 5588 5583 5577 5572
5751 5750 5749 5748 5746 5744 5743 5742 5739 5736 5733 5729 5727 5725 5720 5717 5713 5709 5704 5699 5695 5690 5685 5679 5674 5668 5662 5655 5649 5643 5636 5630 5623 5616 5609 5602 5596 5590 5584 5578 5572 5566 5561 5555
5743 5742 5741 5740 5738 5736 5737 5735 5731 5728 5726 5722 5719 5717 5712 5709 5704 5700 5695 5689 5684 5679 5674 5668 5662 5656 5649 5643 5636 5630 5623 5616 5609 5602 5595 5588 5581 5575 5568 5562 5556 5550 5545 5539
5735 5733 5731 5731 5731 5729 5731 5726 5723 5720 5718 5714 5710 5707 5703 5699 5695 5690 5684 5678 5673 5667 5661 5655 5649 5642 5636 5629 5622 5616 5609 5602 5594 5587 5579 5572 5565 5559 5552 5546 5540 5534 5529 5523
5727 5725 5723 5722 5720 5720 5722 5718 5713 5710 5708 5705 5701 5698 5693 5689 5685 5680 5672 5666 5660 5654 5648 5641 5634 5628 5621 5614 5607 5601 5594 5586 5579 5571 5564 5556 5549 5543 5536 5530 5524 5518 5512 5506
5719 5718 5716 5713 5710 5710 5712 5707 5702 5700 5697 5694 5690 5686 5682 5677 5672 5668 5660 5654 5647 5641 5634 5627 5620 5613 5606 5599 5592 5585 5578 5570 5563 5555 5547 5539 5532 5526 5520 5514 5507 5501 5495 5490
5712 5710 5708 5704 5700 5701 5700 5696 5692 5690 5686 5682 5677 5673 5668 5662 5657 5652 5645 5639 5632 5625 5618 5611 5604 5597 5589 5582 5575 5568 5561 5553 5546 5538 5531 5523 5516 5509 5503 5497 5491 5485 5479 5473
5702 5701 5699 5695 5692 5693 5687 5684 5681 5678 5674 5669 5664 5660 5654 5649 5642 5636 5630 5623 5616 5609 5602 5594 5587 5580 5572 5564 5557 5551 5543 5536 5529 5522 5514 5507 5500 5493 5486 5481 5475 5468 5462 5457
5694 5693 5689 5686 5684 5681 5676 5672 5668 5664 5660 5656 5651 5646 5640 5634 5627 5621 5614 5607 5599 5592 5584 5577 5570 5563 5555 5546 5539 5532 5526 5518 5512 5505 5498 5491 5484 5477 5470 5464 5458 5452 5446 5441
5684 5682 5677 5673 5673 5670 5665 5661 5657 5652 5647 5642 5636 5630 5624 5617 5611 5604 5597 5589 5581 5574 5566 5559 5551 5545 5538 5530 5522 5514 5507 5501 5495 5488 5481 5474 5468 5462 5455 5448 5442 5436 5430 5424
5673 5668 5663 5661 5660 5657 5653 5648 5643 5638 5632 5626 5620 5613 5606 5600 5593 5586 5579 5571 5563 5556 5548 5540 5533 5527 5520 5513 5505 5497 5490 5484 5478 5472 5465 5459 5452 5446 5440 5434 5427 5420 5415 5408
5659 5653 5650 5649 5646 5642 5638 5632 5627 5622 5616 5610 5604 5597 5589 5582 5575 5568 5561 5553 5545 5538 5530 5523 5516 5509 5502 5495 5488 5481 5473 5467 5461 5456 5449 5443 5437 5431 5425 5419 5414 5406 5400 5394